Time,TemperatureF,DewpointF,PressureIn,WindDirection,WindDirectionDegrees,WindSpeedMPH,WindSpeedGustMPH,Humidity,HourlyPrecipIn,Conditions,Clouds,dailyrainin,SoftwareType,DateUTC
2013-04-01 00:00:00,40.5,30.8,29.95,WNW,303,14.0,20.0,68,0.00,,---,0.00,VWS V14.01,2013-04-01 05:00:00,
2013-04-01 00:03:00,38.2,28.9,29.97,NW,307,14.0,19.0,69,0.00,,---,0.00,VWS V14.01,2013-04-01 05:03:00,
2013-04-01 00:08:00,38.2,28.6,29.97,WNW,301,13.0,19.0,68,0.00,,---,0.00,VWS V14.01,2013-04-01 05:08:00,
2013-04-01 00:13:00,38.1,28.5,29.97,NW,306,13.0,19.0,68,0.00,,---,0.00,VWS V14.01,2013-04-01 05:13:00,
2013-04-01 00:18:00,38.0,28.8,29.98,WNW,294,13.0,19.0,69,0.00,,---,0.00,VWS V14.01,2013-04-01 05:18:00,
2013-04-01 00:23:00,37.9,28.6,29.98,WNW,298,13.0,19.0,69,0.00,,---,0.00,VWS V14.01,2013-04-01 05:23:00,
2013-04-01 00:28:00,37.7,28.5,29.98,WNW,300,12.0,13.0,69,0.00,,---,0.00,VWS V14.01,2013-04-01 05:28:00,
2013-04-01 00:30:00,37.6,28.4,29.98,WNW,294,13.0,19.0,69,0.00,,---,0.00,VWS V14.01,2013-04-01 05:30:00,
2013-04-01 00:33:00,37.5,28.3,29.98,NW,305,13.0,16.0,69,0.00,,---,0.00,VWS V14.01,2013-04-01 05:33:00,
2013-04-01 00:38:00,37.5,28.6,29.99,WNW,299,14.0,16.0,70,0.00,,---,0.00,VWS V14.01,2013-04-01 05:38:00,
2013-04-01 00:43:00,37.5,28.3,29.99,WNW,302,16.0,18.0,69,0.00,,---,0.00,VWS V14.01,2013-04-01 05:43:00,
2013-04-01 00:49:00,37.6,28.4,30.00,NW,306,14.0,19.0,69,0.00,,---,0.00,VWS V14.01,2013-04-01 05:49:00,
2013-04-01 00:54:00,37.6,28.0,29.99,NW,315,16.0,20.0,68,0.00,,---,0.00,VWS V14.01,2013-04-01 05:54:00,
2013-04-01 00:59:00,37.6,27.3,29.99,NW,325,20.0,20.0,66,0.00,,---,0.00,VWS V14.01,2013-04-01 05:59:00,
2013-04-01 01:00:00,37.6,27.3,29.99,NW,323,18.0,22.0,66,0.00,,---,0.00,VWS V14.01,2013-04-01 06:00:00,
2013-04-01 01:04:00,37.5,27.2,29.99,NW,308,18.0,24.0,66,0.00,,---,0.00,VWS V14.01,2013-04-01 06:04:00,
2013-04-01 01:09:00,37.5,27.2,29.99,NW,319,18.0,24.0,66,0.00,,---,0.00,VWS V14.01,2013-04-01 06:09:00,
2013-04-01 01:13:00,37.3,26.3,29.99,NW,316,17.0,24.0,64,0.00,,---,0.00,VWS V14.01,2013-04-01 06:13:00,
2013-04-01 01:19:00,37.2,25.8,30.00,NNW,329,20.0,25.0,63,0.00,,---,0.00,VWS V14.01,2013-04-01 06:19:00,
2013-04-01 01:24:00,37.1,25.7,30.00,NW,320,18.0,25.0,63,0.00,,---,0.00,VWS V14.01,2013-04-01 06:24:00,
2013-04-01 01:29:00,37.0,25.6,30.00,NW,311,17.0,19.0,63,0.00,,---,0.00,VWS V14.01,2013-04-01 06:29:00,
2013-04-01 01:30:00,37.0,25.6,30.00,NW,323,19.0,25.0,63,0.00,,---,0.00,VWS V14.01,2013-04-01 06:30:00,
2013-04-01 01:34:00,36.8,25.8,30.01,NW,309,13.0,21.0,64,0.00,,---,0.00,VWS V14.01,2013-04-01 06:34:00,
2013-04-01 01:39:00,36.6,26.0,30.01,WNW,303,17.0,21.0,65,0.00,,---,0.00,VWS V14.01,2013-04-01 06:39:00,
2013-04-01 01:44:00,36.5,25.9,30.01,NW,304,13.0,21.0,65,0.00,,---,0.00,VWS V14.01,2013-04-01 06:44:00,
2013-04-01 01:49:00,36.5,25.5,30.01,NW,308,20.0,22.0,64,0.00,,---,0.00,VWS V14.01,2013-04-01 06:49:00,
2013-04-01 01:54:00,36.4,25.8,30.01,NW,310,17.0,22.0,65,0.00,,---,0.00,VWS V14.01,2013-04-01 06:54:00,
2013-04-01 01:59:00,36.2,26.0,30.02,NW,316,16.0,17.0,66,0.00,,---,0.00,VWS V14.01,2013-04-01 06:59:00,
2013-04-01 02:00:00,36.3,26.0,30.02,West,281,12.0,22.0,66,0.00,,---,0.00,VWS V14.01,2013-04-01 07:00:00,
2013-04-01 02:04:00,36.1,25.5,30.02,NW,304,15.0,19.0,65,0.00,,---,0.00,VWS V14.01,2013-04-01 07:04:00,
2013-04-01 02:09:00,36.0,25.4,30.01,NW,311,13.0,19.0,65,0.00,,---,0.00,VWS V14.01,2013-04-01 07:09:00,
2013-04-01 02:14:00,36.0,25.4,30.02,NW,313,15.0,19.0,65,0.00,,---,0.00,VWS V14.01,2013-04-01 07:14:00,
2013-04-01 02:19:00,36.0,25.4,30.02,WNW,303,13.0,19.0,65,0.00,,---,0.00,VWS V14.01,2013-04-01 07:19:00,
2013-04-01 02:24:00,35.6,25.4,30.03,NW,304,17.0,19.0,66,0.00,,---,0.00,VWS V14.01,2013-04-01 07:24:00,
2013-04-01 02:29:00,35.4,25.2,30.03,NW,311,11.0,12.0,66,0.00,,---,0.00,VWS V14.01,2013-04-01 07:29:00,
2013-04-01 02:30:00,35.5,25.3,30.03,NW,309,12.0,19.0,66,0.00,,---,0.00,VWS V14.01,2013-04-01 07:30:00,
2013-04-01 02:35:00,35.0,25.2,30.03,WNW,298,15.0,16.0,67,0.00,,---,0.00,VWS V14.01,2013-04-01 07:35:00,
2013-04-01 02:40:00,34.9,25.4,30.03,WNW,301,13.0,17.0,68,0.00,,---,0.00,VWS V14.01,2013-04-01 07:40:00,
2013-04-01 02:45:00,34.9,25.8,30.03,WNW,302,11.0,17.0,69,0.00,,---,0.00,VWS V14.01,2013-04-01 07:45:00,
2013-04-01 02:50:00,34.8,25.3,30.03,WNW,295,15.0,17.0,68,0.00,,---,0.00,VWS V14.01,2013-04-01 07:50:00,
2013-04-01 02:55:00,34.7,25.6,30.04,WNW,295,11.0,17.0,69,0.00,,---,0.00,VWS V14.01,2013-04-01 07:55:00,
2013-04-01 03:00:00,34.6,25.5,30.04,WNW,298,9.0,17.0,69,0.00,,---,0.00,VWS V14.01,2013-04-01 08:00:00,
2013-04-01 03:05:00,34.5,25.4,30.04,NW,309,13.0,17.0,69,0.00,,---,0.00,VWS V14.01,2013-04-01 08:05:00,
2013-04-01 03:10:00,34.4,25.6,30.04,WNW,302,13.0,17.0,70,0.00,,---,0.00,VWS V14.01,2013-04-01 08:10:00,
2013-04-01 03:15:00,34.3,25.9,30.04,WNW,293,11.0,17.0,71,0.00,,---,0.00,VWS V14.01,2013-04-01 08:15:00,
2013-04-01 03:20:00,34.1,26.0,30.04,WNW,295,12.0,17.0,72,0.00,,---,0.00,VWS V14.01,2013-04-01 08:20:00,
2013-04-01 03:25:00,34.0,25.6,30.04,WNW,296,12.0,17.0,71,0.00,,---,0.00,VWS V14.01,2013-04-01 08:25:00,
2013-04-01 03:30:00,33.9,25.5,30.05,WNW,292,10.0,15.0,71,0.00,,---,0.00,VWS V14.01,2013-04-01 08:30:00,
2013-04-01 03:35:00,33.8,25.7,30.05,WNW,294,13.0,16.0,72,0.00,,---,0.00,VWS V14.01,2013-04-01 08:35:00,
2013-04-01 03:40:00,33.8,25.7,30.05,WNW,288,12.0,17.0,72,0.00,,---,0.00,VWS V14.01,2013-04-01 08:40:00,
2013-04-01 03:45:00,33.8,25.1,30.05,WNW,299,15.0,18.0,70,0.00,,---,0.00,VWS V14.01,2013-04-01 08:45:00,
2013-04-01 03:50:00,33.7,25.3,30.05,WNW,295,11.0,18.0,71,0.00,,---,0.00,VWS V14.01,2013-04-01 08:50:00,
2013-04-01 03:55:00,33.5,25.5,30.05,NW,308,11.0,18.0,72,0.00,,---,0.00,VWS V14.01,2013-04-01 08:55:00,
2013-04-01 04:00:00,33.4,25.4,30.05,WNW,298,13.0,13.0,72,0.00,,---,0.00,VWS V14.01,2013-04-01 09:00:00,
2013-04-01 04:05:00,33.0,25.0,30.05,NW,307,11.0,16.0,72,0.00,,---,0.00,VWS V14.01,2013-04-01 09:05:00,
2013-04-01 04:10:00,32.7,25.0,30.06,NW,318,12.0,16.0,73,0.00,,---,0.00,VWS V14.01,2013-04-01 09:10:00,
2013-04-01 04:16:00,32.5,25.1,30.06,NW,304,11.0,16.0,74,0.00,,---,0.00,VWS V14.01,2013-04-01 09:16:00,
2013-04-01 04:21:00,32.1,25.1,30.06,WNW,298,10.0,16.0,75,0.00,,---,0.00,VWS V14.01,2013-04-01 09:21:00,
2013-04-01 04:26:00,32.0,25.0,30.06,WNW,300,14.0,16.0,75,0.00,,---,0.00,VWS V14.01,2013-04-01 09:26:00,
2013-04-01 04:30:00,33.9,25.2,30.04,WNW,292,15.0,17.0,70,0.00,,---,0.00,VWS V14.01,2013-04-01 09:30:00,
2013-04-01 04:31:00,31.9,24.9,30.06,WNW,293,11.0,13.0,75,0.00,,---,0.00,VWS V14.01,2013-04-01 09:31:00,
2013-04-01 04:36:00,31.7,24.7,30.06,NW,309,10.0,17.0,75,0.00,,---,0.00,VWS V14.01,2013-04-01 09:36:00,
2013-04-01 04:41:00,31.6,24.9,30.06,NW,307,9.0,17.0,76,0.00,,---,0.00,VWS V14.01,2013-04-01 09:41:00,
2013-04-01 04:46:00,31.4,24.7,30.07,NW,309,9.0,17.0,76,0.00,,---,0.00,VWS V14.01,2013-04-01 09:46:00,
2013-04-01 04:52:00,31.3,24.6,30.07,WNW,301,10.0,17.0,76,0.00,,---,0.00,VWS V14.01,2013-04-01 09:52:00,
2013-04-01 04:57:00,31.1,24.8,30.07,WNW,298,11.0,17.0,77,0.00,,---,0.00,VWS V14.01,2013-04-01 09:57:00,
2013-04-01 05:00:00,31.0,24.6,30.07,WNW,303,12.0,17.0,77,0.00,,---,0.00,VWS V14.01,2013-04-01 10:00:00,
2013-04-01 05:02:00,31.0,24.6,30.07,NW,309,10.0,13.0,77,0.00,,---,0.00,VWS V14.01,2013-04-01 10:02:00,
2013-04-01 05:07:00,30.8,24.8,30.07,NW,304,10.0,14.0,78,0.00,,---,0.00,VWS V14.01,2013-04-01 10:07:00,
2013-04-01 05:12:00,30.5,24.8,30.08,WNW,300,9.0,14.0,79,0.00,,---,0.00,VWS V14.01,2013-04-01 10:12:00,
2013-04-01 05:17:00,30.3,24.6,30.08,WNW,299,9.0,14.0,79,0.00,,---,0.00,VWS V14.01,2013-04-01 10:17:00,
2013-04-01 05:22:00,30.1,24.7,30.08,WNW,299,9.0,14.0,80,0.00,,---,0.00,VWS V14.01,2013-04-01 10:22:00,
2013-04-01 05:27:00,30.0,24.6,30.08,WNW,296,9.0,14.0,80,0.00,,---,0.00,VWS V14.01,2013-04-01 10:27:00,
2013-04-01 05:30:00,30.0,24.6,30.08,NW,304,8.0,14.0,80,0.00,,---,0.00,VWS V14.01,2013-04-01 10:30:00,
2013-04-01 05:32:00,29.9,24.5,30.08,WNW,296,8.0,12.0,80,0.00,,---,0.00,VWS V14.01,2013-04-01 10:32:00,
2013-04-01 05:37:00,29.8,24.7,30.09,WNW,296,7.0,12.0,81,0.00,,---,0.00,VWS V14.01,2013-04-01 10:37:00,
2013-04-01 05:42:00,29.7,24.6,30.09,WNW,291,10.0,12.0,81,0.00,,---,0.00,VWS V14.01,2013-04-01 10:42:00,
2013-04-01 05:47:00,29.6,24.5,30.09,WNW,289,10.0,12.0,81,0.00,,---,0.00,VWS V14.01,2013-04-01 10:47:00,
2013-04-01 05:52:00,29.5,24.4,30.09,WNW,289,10.0,12.0,81,0.00,,---,0.00,VWS V14.01,2013-04-01 10:52:00,
2013-04-01 05:57:00,29.4,24.3,30.09,WNW,290,10.0,12.0,81,0.00,,---,0.00,VWS V14.01,2013-04-01 10:57:00,
2013-04-01 06:00:00,29.4,24.3,30.09,WNW,290,8.0,12.0,81,0.00,,---,0.00,VWS V14.01,2013-04-01 11:00:00,
2013-04-01 06:03:00,29.3,24.2,30.10,WNW,291,8.0,12.0,81,0.00,,---,0.00,VWS V14.01,2013-04-01 11:03:00,
2013-04-01 06:08:00,29.2,24.1,30.10,WNW,292,8.0,12.0,81,0.00,,---,0.00,VWS V14.01,2013-04-01 11:08:00,
2013-04-01 06:13:00,29.2,24.1,30.10,WNW,292,9.0,12.0,81,0.00,,---,0.00,VWS V14.01,2013-04-01 11:13:00,
2013-04-01 06:18:00,29.0,23.9,30.11,WNW,291,9.0,12.0,81,0.00,,---,0.00,VWS V14.01,2013-04-01 11:18:00,
2013-04-01 06:23:00,29.0,23.9,30.11,WNW,296,8.0,12.0,81,0.00,,---,0.00,VWS V14.01,2013-04-01 11:23:00,
2013-04-01 06:28:00,28.9,24.1,30.11,WNW,288,8.0,8.0,82,0.00,,---,0.00,VWS V14.01,2013-04-01 11:28:00,
2013-04-01 06:30:00,28.9,24.1,30.11,WNW,286,7.0,12.0,82,0.00,,---,0.00,VWS V14.01,2013-04-01 11:30:00,
2013-04-01 06:33:00,28.8,24.0,30.12,WNW,286,8.0,10.0,82,0.00,,---,0.00,VWS V14.01,2013-04-01 11:33:00,
2013-04-01 06:38:00,28.8,24.0,30.12,WNW,294,9.0,10.0,82,0.00,,---,0.00,VWS V14.01,2013-04-01 11:38:00,
2013-04-01 06:43:00,28.6,23.8,30.12,WNW,292,9.0,10.0,82,0.00,,---,0.00,VWS V14.01,2013-04-01 11:43:00,
2013-04-01 06:48:00,28.5,24.0,30.12,WNW,294,8.0,11.0,83,0.00,,---,0.00,VWS V14.01,2013-04-01 11:48:00,
2013-04-01 06:53:00,28.5,24.0,30.12,WNW,293,10.0,11.0,83,0.00,,---,0.00,VWS V14.01,2013-04-01 11:53:00,
2013-04-01 06:58:00,28.6,23.8,30.13,WNW,291,8.0,9.0,82,0.00,,---,0.00,VWS V14.01,2013-04-01 11:58:00,
2013-04-01 07:00:00,28.6,24.1,30.13,WNW,296,8.0,11.0,83,0.00,,---,0.00,VWS V14.01,2013-04-01 12:00:00,
2013-04-01 07:03:00,28.7,23.9,30.13,WNW,292,8.0,10.0,82,0.00,,---,0.00,VWS V14.01,2013-04-01 12:03:00,
2013-04-01 07:09:00,28.7,23.9,30.13,WNW,290,8.0,10.0,82,0.00,,---,0.00,VWS V14.01,2013-04-01 12:09:00,
2013-04-01 07:14:00,28.8,24.3,30.14,WNW,288,8.0,11.0,83,0.00,,---,0.00,VWS V14.01,2013-04-01 12:14:00,
2013-04-01 07:19:00,29.0,24.2,30.14,WNW,289,10.0,13.0,82,0.00,,---,0.00,VWS V14.01,2013-04-01 12:19:00,
2013-04-01 07:24:00,29.2,24.4,30.14,WNW,285,11.0,13.0,82,0.00,,---,0.00,VWS V14.01,2013-04-01 12:24:00,
2013-04-01 07:29:00,29.3,24.5,30.15,WNW,292,9.0,13.0,82,0.00,,---,0.00,VWS V14.01,2013-04-01 12:29:00,
2013-04-01 07:30:00,29.4,24.6,30.15,WNW,294,13.0,13.0,82,0.00,,---,0.00,VWS V14.01,2013-04-01 12:30:00,
2013-04-01 07:34:00,29.6,24.8,30.15,WNW,293,12.0,13.0,82,0.00,,---,0.00,VWS V14.01,2013-04-01 12:34:00,
2013-04-01 07:39:00,29.7,24.6,30.15,WNW,289,13.0,14.0,81,0.00,,---,0.00,VWS V14.01,2013-04-01 12:39:00,
2013-04-01 07:44:00,29.8,24.7,30.15,WNW,290,11.0,14.0,81,0.00,,---,0.00,VWS V14.01,2013-04-01 12:44:00,
2013-04-01 07:49:00,30.0,24.9,30.15,WNW,298,13.0,15.0,81,0.00,,---,0.00,VWS V14.01,2013-04-01 12:49:00,
2013-04-01 07:54:00,30.0,24.6,30.16,WNW,302,12.0,16.0,80,0.00,,---,0.00,VWS V14.01,2013-04-01 12:54:00,
2013-04-01 07:59:00,30.3,24.9,30.16,WNW,300,16.0,16.0,80,0.00,,---,0.00,VWS V14.01,2013-04-01 12:59:00,
2013-04-01 08:00:00,30.3,25.2,30.15,NW,313,14.0,16.0,81,0.00,,---,0.00,VWS V14.01,2013-04-01 13:00:00,
2013-04-01 08:04:00,30.6,25.2,30.16,NW,311,9.0,16.0,80,0.00,,---,0.00,VWS V14.01,2013-04-01 13:04:00,
2013-04-01 08:09:00,30.9,25.2,30.16,NW,308,12.0,16.0,79,0.00,,---,0.00,VWS V14.01,2013-04-01 13:09:00,
2013-04-01 08:14:00,31.0,25.0,30.16,NW,309,14.0,18.0,78,0.00,,---,0.00,VWS V14.01,2013-04-01 13:14:00,
2013-04-01 08:19:00,31.1,24.8,30.16,NW,325,12.0,19.0,77,0.00,,---,0.00,VWS V14.01,2013-04-01 13:19:00,
2013-04-01 08:24:00,31.5,25.4,30.17,WNW,292,14.0,19.0,78,0.00,,---,0.00,VWS V14.01,2013-04-01 13:24:00,
2013-04-01 08:29:00,31.7,25.0,30.17,NW,312,14.0,15.0,76,0.00,,---,0.00,VWS V14.01,2013-04-01 13:29:00,
2013-04-01 08:30:00,31.7,24.7,30.17,NW,317,13.0,19.0,75,0.00,,---,0.00,VWS V14.01,2013-04-01 13:30:00,
2013-04-01 08:34:00,31.8,24.5,30.17,NW,311,12.0,19.0,74,0.00,,---,0.00,VWS V14.01,2013-04-01 13:34:00,
2013-04-01 08:39:00,32.1,24.8,30.17,NW,313,19.0,19.0,74,0.00,,---,0.00,VWS V14.01,2013-04-01 13:39:00,
2013-04-01 08:45:00,32.3,25.0,30.17,NW,325,13.0,19.0,74,0.00,,---,0.00,VWS V14.01,2013-04-01 13:45:00,
2013-04-01 08:50:00,32.5,24.5,30.17,NW,325,11.0,19.0,72,0.00,,---,0.00,VWS V14.01,2013-04-01 13:50:00,
2013-04-01 08:55:00,33.1,25.1,30.17,NW,308,16.0,19.0,72,0.00,,---,0.00,VWS V14.01,2013-04-01 13:55:00,
2013-04-01 09:00:00,33.2,24.1,30.18,NW,309,13.0,18.0,69,0.00,,---,0.00,VWS V14.01,2013-04-01 14:00:00,
2013-04-01 09:05:00,33.1,24.4,30.18,NW,324,15.0,18.0,70,0.00,,---,0.00,VWS V14.01,2013-04-01 14:05:00,
2013-04-01 09:10:00,33.3,24.2,30.18,NW,313,15.0,18.0,69,0.00,,---,0.00,VWS V14.01,2013-04-01 14:10:00,
2013-04-01 09:15:00,33.3,24.2,30.18,NW,308,12.0,18.0,69,0.00,,---,0.00,VWS V14.01,2013-04-01 14:15:00,
2013-04-01 09:20:00,33.5,24.8,30.18,WNW,300,14.0,18.0,70,0.00,,---,0.00,VWS V14.01,2013-04-01 14:20:00,
2013-04-01 09:25:00,33.7,24.6,30.18,NW,308,9.0,18.0,69,0.00,,---,0.00,VWS V14.01,2013-04-01 14:25:00,
2013-04-01 09:30:00,33.9,24.5,30.19,WNW,303,14.0,15.0,68,0.00,,---,0.00,VWS V14.01,2013-04-01 14:30:00,
2013-04-01 09:35:00,33.9,24.1,30.19,WNW,301,12.0,17.0,67,0.00,,---,0.00,VWS V14.01,2013-04-01 14:35:00,
2013-04-01 09:40:00,34.3,23.8,30.19,NW,308,12.0,17.0,65,0.00,,---,0.00,VWS V14.01,2013-04-01 14:40:00,
2013-04-01 09:45:00,34.2,23.3,30.19,NW,315,11.0,17.0,64,0.00,,---,0.00,VWS V14.01,2013-04-01 14:45:00,
2013-04-01 09:50:00,34.7,24.5,30.19,NW,304,13.0,17.0,66,0.00,,---,0.00,VWS V14.01,2013-04-01 14:50:00,
2013-04-01 09:56:00,34.6,24.1,30.19,NW,315,11.0,17.0,65,0.00,,---,0.00,VWS V14.01,2013-04-01 14:56:00,
2013-04-01 10:00:00,34.8,23.1,30.19,NNW,339,10.0,17.0,62,0.00,,---,0.00,VWS V14.01,2013-04-01 15:00:00,
2013-04-01 10:01:00,35.2,24.3,30.19,NNW,340,11.0,14.0,64,0.00,,---,0.00,VWS V14.01,2013-04-01 15:01:00,
2013-04-01 10:06:00,35.4,21.7,30.19,NW,320,11.0,14.0,57,0.00,,---,0.00,VWS V14.01,2013-04-01 15:06:00,
2013-04-01 10:11:00,35.7,24.0,30.19,WNW,296,13.0,14.0,62,0.00,,---,0.00,VWS V14.01,2013-04-01 15:11:00,
2013-04-01 10:16:00,35.6,22.7,30.19,WNW,293,13.0,15.0,59,0.00,,---,0.00,VWS V14.01,2013-04-01 15:16:00,
2013-04-01 10:21:00,35.4,22.9,30.20,NNW,337,10.0,15.0,60,0.00,,---,0.00,VWS V14.01,2013-04-01 15:21:00,
2013-04-01 10:26:00,35.9,22.6,30.20,NW,317,13.0,17.0,58,0.00,,---,0.00,VWS V14.01,2013-04-01 15:26:00,
2013-04-01 10:30:00,35.7,22.8,30.20,NW,321,6.0,17.0,59,0.00,,---,0.00,VWS V14.01,2013-04-01 15:30:00,
2013-04-01 10:31:00,35.9,22.6,30.19,WNW,284,11.0,15.0,58,0.00,,---,0.00,VWS V14.01,2013-04-01 15:31:00,
2013-04-01 10:36:00,36.3,23.8,30.19,NW,304,15.0,19.0,60,0.00,,---,0.00,VWS V14.01,2013-04-01 15:36:00,
2013-04-01 10:42:00,36.0,21.8,30.19,North,355,14.0,19.0,56,0.00,,---,0.00,VWS V14.01,2013-04-01 15:42:00,
2013-04-01 10:47:00,36.3,21.7,30.19,WNW,292,17.0,21.0,55,0.00,,---,0.00,VWS V14.01,2013-04-01 15:47:00,
2013-04-01 10:52:00,36.6,23.2,30.20,WNW,298,9.0,21.0,58,0.00,,---,0.00,VWS V14.01,2013-04-01 15:52:00,
2013-04-01 10:57:00,36.5,22.7,30.20,West,276,11.0,21.0,57,0.00,,---,0.00,VWS V14.01,2013-04-01 15:57:00,
2013-04-01 11:00:00,36.4,22.2,30.20,West,275,15.0,21.0,56,0.00,,---,0.00,VWS V14.01,2013-04-01 16:00:00,
2013-04-01 11:02:00,36.6,22.4,30.20,WNW,296,17.0,19.0,56,0.00,,---,0.00,VWS V14.01,2013-04-01 16:02:00,
2013-04-01 11:07:00,36.3,21.7,30.20,WNW,302,15.0,19.0,55,0.00,,---,0.00,VWS V14.01,2013-04-01 16:07:00,
2013-04-01 11:12:00,36.8,22.2,30.20,NNW,328,12.0,19.0,55,0.00,,---,0.00,VWS V14.01,2013-04-01 16:12:00,
2013-04-01 11:17:00,36.6,20.6,30.20,WNW,289,11.0,21.0,52,0.00,,---,0.00,VWS V14.01,2013-04-01 16:17:00,
2013-04-01 11:22:00,36.8,22.2,30.20,NW,308,10.0,21.0,55,0.00,,---,0.00,VWS V14.01,2013-04-01 16:22:00,
2013-04-01 11:27:00,37.2,21.7,30.20,NW,309,8.0,21.0,53,0.00,,---,0.00,VWS V14.01,2013-04-01 16:27:00,
2013-04-01 11:30:00,37.3,23.1,30.20,WNW,284,7.0,21.0,56,0.00,,---,0.00,VWS V14.01,2013-04-01 16:30:00,
2013-04-01 11:32:00,37.5,21.9,30.20,NW,317,16.0,19.0,53,0.00,,---,0.00,VWS V14.01,2013-04-01 16:32:00,
2013-04-01 11:38:00,37.6,21.6,30.20,WNW,296,15.0,20.0,52,0.00,,---,0.00,VWS V14.01,2013-04-01 16:38:00,
2013-04-01 11:43:00,37.5,20.6,30.20,WNW,294,15.0,20.0,50,0.00,,---,0.00,VWS V14.01,2013-04-01 16:43:00,
2013-04-01 11:48:00,37.9,21.4,30.21,NNW,336,7.0,20.0,51,0.00,,---,0.00,VWS V14.01,2013-04-01 16:48:00,
2013-04-01 11:53:00,38.1,22.5,30.21,NW,318,9.0,20.0,53,0.00,,---,0.00,VWS V14.01,2013-04-01 16:53:00,
2013-04-01 11:58:00,38.1,21.6,30.21,NW,316,12.0,20.0,51,0.00,,---,0.00,VWS V14.01,2013-04-01 16:58:00,
2013-04-01 12:00:00,38.1,21.6,30.21,NW,311,14.0,20.0,51,0.00,,---,0.00,VWS V14.01,2013-04-01 17:00:00,
2013-04-01 12:03:00,38.0,20.1,30.20,WNW,294,12.0,19.0,48,0.00,,---,0.00,VWS V14.01,2013-04-01 17:03:00,
2013-04-01 12:08:00,39.0,22.9,30.20,West,259,16.0,24.0,52,0.00,,---,0.00,VWS V14.01,2013-04-01 17:08:00,
2013-04-01 12:13:00,38.7,21.7,30.21,NW,304,11.0,24.0,50,0.00,,---,0.00,VWS V14.01,2013-04-01 17:13:00,
2013-04-01 12:18:00,38.5,20.5,30.20,WNW,301,8.0,24.0,48,0.00,,---,0.00,VWS V14.01,2013-04-01 17:18:00,
2013-04-01 12:23:00,38.9,20.9,30.20,WNW,294,16.0,24.0,48,0.00,,---,0.00,VWS V14.01,2013-04-01 17:23:00,
2013-04-01 12:28:00,38.8,20.8,30.20,WNW,292,9.0,12.0,48,0.00,,---,0.00,VWS V14.01,2013-04-01 17:28:00,
2013-04-01 12:30:00,38.8,21.3,30.20,WNW,291,12.0,24.0,49,0.00,,---,0.00,VWS V14.01,2013-04-01 17:30:00,
2013-04-01 12:33:00,38.9,21.4,30.20,WNW,300,16.0,21.0,49,0.00,,---,0.00,VWS V14.01,2013-04-01 17:33:00,
2013-04-01 12:38:00,39.0,20.0,30.19,WNW,294,14.0,22.0,46,0.00,,---,0.00,VWS V14.01,2013-04-01 17:38:00,
2013-04-01 12:43:00,39.3,22.2,30.20,NNW,329,12.0,22.0,50,0.00,,---,0.00,VWS V14.01,2013-04-01 17:43:00,
2013-04-01 12:48:00,39.6,21.0,30.20,West,277,11.0,22.0,47,0.00,,---,0.00,VWS V14.01,2013-04-01 17:48:00,
2013-04-01 12:53:00,39.2,20.2,30.20,NW,312,15.0,22.0,46,0.00,,---,0.00,VWS V14.01,2013-04-01 17:53:00,
2013-04-01 12:58:00,39.6,20.0,30.19,West,274,10.0,13.0,45,0.00,,---,0.00,VWS V14.01,2013-04-01 17:58:00,
2013-04-01 13:00:00,39.6,20.5,30.19,West,263,13.0,22.0,46,0.00,,---,0.00,VWS V14.01,2013-04-01 18:00:00,
2013-04-01 13:03:00,39.9,19.8,30.20,NW,305,12.0,20.0,44,0.00,,---,0.00,VWS V14.01,2013-04-01 18:03:00,
2013-04-01 13:08:00,39.9,21.3,30.20,NW,317,20.0,20.0,47,0.00,,---,0.00,VWS V14.01,2013-04-01 18:08:00,
2013-04-01 13:14:00,39.9,20.3,30.20,WNW,295,19.0,23.0,45,0.00,,---,0.00,VWS V14.01,2013-04-01 18:14:00,
2013-04-01 13:19:00,40.5,22.4,30.20,NW,309,10.0,23.0,48,0.00,,---,0.00,VWS V14.01,2013-04-01 18:19:00,
2013-04-01 13:24:00,40.8,20.6,30.20,NW,306,14.0,23.0,44,0.00,,---,0.00,VWS V14.01,2013-04-01 18:24:00,
2013-04-01 13:29:00,40.6,21.5,30.19,WNW,290,21.0,22.0,46,0.00,,---,0.00,VWS V14.01,2013-04-01 18:29:00,
2013-04-01 13:30:00,40.6,21.5,30.20,West,275,17.0,23.0,46,0.00,,---,0.00,VWS V14.01,2013-04-01 18:30:00,
2013-04-01 13:34:00,40.0,21.4,30.19,West,281,13.0,22.0,47,0.00,,---,0.00,VWS V14.01,2013-04-01 18:34:00,
2013-04-01 13:39:00,40.0,20.9,30.20,NNW,335,16.0,23.0,46,0.00,,---,0.00,VWS V14.01,2013-04-01 18:39:00,
2013-04-01 13:44:00,40.4,21.8,30.19,WNW,296,11.0,23.0,47,0.00,,---,0.00,VWS V14.01,2013-04-01 18:44:00,
2013-04-01 13:49:00,40.5,21.4,30.19,WNW,301,19.0,23.0,46,0.00,,---,0.00,VWS V14.01,2013-04-01 18:49:00,
2013-04-01 13:54:00,40.6,21.5,30.19,West,275,14.0,24.0,46,0.00,,---,0.00,VWS V14.01,2013-04-01 18:54:00,
2013-04-01 13:59:00,41.1,19.2,30.19,NW,315,12.0,14.0,41,0.00,,---,0.00,VWS V14.01,2013-04-01 18:59:00,
2013-04-01 14:00:00,41.2,19.9,30.20,NNW,328,10.0,24.0,42,0.00,,---,0.00,VWS V14.01,2013-04-01 19:00:00,
2013-04-01 14:04:00,40.7,20.5,30.19,NW,313,12.0,22.0,44,0.00,,---,0.00,VWS V14.01,2013-04-01 19:04:00,
2013-04-01 14:09:00,41.0,18.5,30.19,NW,325,10.0,22.0,40,0.00,,---,0.00,VWS V14.01,2013-04-01 19:09:00,
2013-04-01 14:15:00,41.1,19.8,30.19,NW,326,13.0,22.0,42,0.00,,---,0.00,VWS V14.01,2013-04-01 19:15:00,
2013-04-01 14:20:00,41.0,20.8,30.19,WNW,285,14.0,22.0,44,0.00,,---,0.00,VWS V14.01,2013-04-01 19:20:00,
2013-04-01 14:25:00,41.7,23.0,30.19,NW,309,14.0,23.0,47,0.00,,---,0.00,VWS V14.01,2013-04-01 19:25:00,
2013-04-01 14:30:00,42.0,22.2,30.19,West,281,19.0,20.0,45,0.00,,---,0.00,VWS V14.01,2013-04-01 19:30:00,
2013-04-01 14:35:00,41.4,20.6,30.19,West,267,11.0,22.0,43,0.00,,---,0.00,VWS V14.01,2013-04-01 19:35:00,
2013-04-01 14:40:00,41.6,20.2,30.18,WNW,284,16.0,22.0,42,0.00,,---,0.00,VWS V14.01,2013-04-01 19:40:00,
2013-04-01 14:45:00,41.5,20.7,30.19,NW,311,16.0,22.0,43,0.00,,---,0.00,VWS V14.01,2013-04-01 19:45:00,
2013-04-01 14:50:00,41.5,20.7,30.19,NW,319,16.0,22.0,43,0.00,,---,0.00,VWS V14.01,2013-04-01 19:50:00,
2013-04-01 14:55:00,41.9,19.9,30.19,NW,314,11.0,22.0,41,0.00,,---,0.00,VWS V14.01,2013-04-01 19:55:00,
2013-04-01 15:00:00,42.3,22.5,30.19,NW,311,17.0,20.0,45,0.00,,---,0.00,VWS V14.01,2013-04-01 20:00:00,
2013-04-01 15:05:00,42.0,20.6,30.19,WNW,284,15.0,20.0,42,0.00,,---,0.00,VWS V14.01,2013-04-01 20:05:00,
2013-04-01 15:10:00,41.5,19.0,30.19,NW,313,11.0,21.0,40,0.00,,---,0.00,VWS V14.01,2013-04-01 20:10:00,
2013-04-01 15:15:00,41.9,19.4,30.19,NW,309,19.0,25.0,40,0.00,,---,0.00,VWS V14.01,2013-04-01 20:15:00,
2013-04-01 15:20:00,41.9,21.6,30.19,WNW,290,16.0,25.0,44,0.00,,---,0.00,VWS V14.01,2013-04-01 20:20:00,
2013-04-01 15:25:00,42.4,20.4,30.19,WNW,298,21.0,25.0,41,0.00,,---,0.00,VWS V14.01,2013-04-01 20:25:00,
2013-04-01 15:30:00,42.0,19.5,30.18,WNW,300,11.0,17.0,40,0.00,,---,0.00,VWS V14.01,2013-04-01 20:30:00,
2013-04-01 15:35:00,41.7,19.8,30.18,WNW,285,12.0,17.0,41,0.00,,---,0.00,VWS V14.01,2013-04-01 20:35:00,
2013-04-01 15:40:00,41.8,19.8,30.18,NW,304,17.0,21.0,41,0.00,,---,0.00,VWS V14.01,2013-04-01 20:40:00,
2013-04-01 15:45:00,41.9,19.9,30.19,NW,306,14.0,23.0,41,0.00,,---,0.00,VWS V14.01,2013-04-01 20:45:00,
2013-04-01 15:50:00,42.2,20.8,30.18,WNW,284,14.0,23.0,42,0.00,,---,0.00,VWS V14.01,2013-04-01 20:50:00,
2013-04-01 15:55:00,41.6,19.1,30.18,WNW,290,10.0,23.0,40,0.00,,---,0.00,VWS V14.01,2013-04-01 20:55:00,
2013-04-01 16:00:00,41.6,21.9,30.18,NW,304,14.0,23.0,45,0.00,,---,0.00,VWS V14.01,2013-04-01 21:00:00,
2013-04-01 16:01:00,42.1,21.2,30.18,NW,305,14.0,19.0,43,0.00,,---,0.00,VWS V14.01,2013-04-01 21:01:00,
2013-04-01 16:06:00,42.0,21.7,30.18,WNW,295,16.0,19.0,44,0.00,,---,0.00,VWS V14.01,2013-04-01 21:06:00,
2013-04-01 16:11:00,42.4,21.0,30.18,WNW,297,16.0,24.0,42,0.00,,---,0.00,VWS V14.01,2013-04-01 21:11:00,
2013-04-01 16:16:00,42.5,20.5,30.18,NW,312,10.0,24.0,41,0.00,,---,0.00,VWS V14.01,2013-04-01 21:16:00,
2013-04-01 16:21:00,42.7,21.8,30.18,NW,315,18.0,24.0,43,0.00,,---,0.00,VWS V14.01,2013-04-01 21:21:00,
2013-04-01 16:26:00,42.5,19.9,30.18,WNW,298,16.0,24.0,40,0.00,,---,0.00,VWS V14.01,2013-04-01 21:26:00,
2013-04-01 16:30:00,42.5,21.6,30.18,WNW,282,16.0,24.0,43,0.00,,---,0.00,VWS V14.01,2013-04-01 21:30:00,
2013-04-01 16:31:00,42.4,20.4,30.19,NW,326,11.0,18.0,41,0.00,,---,0.00,VWS V14.01,2013-04-01 21:31:00,
2013-04-01 16:36:00,42.3,20.3,30.19,WNW,298,22.0,22.0,41,0.00,,---,0.00,VWS V14.01,2013-04-01 21:36:00,
2013-04-01 16:42:00,42.0,20.6,30.18,West,269,14.0,22.0,42,0.00,,---,0.00,VWS V14.01,2013-04-01 21:42:00,
2013-04-01 16:47:00,42.2,20.2,30.19,WNW,295,14.0,22.0,41,0.00,,---,0.00,VWS V14.01,2013-04-01 21:47:00,
2013-04-01 16:52:00,42.1,20.1,30.19,WNW,299,14.0,23.0,41,0.00,,---,0.00,VWS V14.01,2013-04-01 21:52:00,
2013-04-01 16:57:00,42.1,19.0,30.19,NW,319,13.0,23.0,39,0.00,,---,0.00,VWS V14.01,2013-04-01 21:57:00,
2013-04-01 17:00:00,42.1,19.5,30.19,NW,318,21.0,23.0,40,0.00,,---,0.00,VWS V14.01,2013-04-01 22:00:00,
2013-04-01 17:02:00,42.3,21.4,30.19,WNW,293,13.0,22.0,43,0.00,,---,0.00,VWS V14.01,2013-04-01 22:02:00,
2013-04-01 17:07:00,42.3,21.4,30.19,NW,315,12.0,22.0,43,0.00,,---,0.00,VWS V14.01,2013-04-01 22:07:00,
2013-04-01 17:12:00,42.1,19.0,30.19,WNW,287,18.0,22.0,39,0.00,,---,0.00,VWS V14.01,2013-04-01 22:12:00,
2013-04-01 17:17:00,41.8,18.7,30.19,West,271,12.0,22.0,39,0.00,,---,0.00,VWS V14.01,2013-04-01 22:17:00,
2013-04-01 17:22:00,41.9,19.4,30.19,WNW,284,18.0,22.0,40,0.00,,---,0.00,VWS V14.01,2013-04-01 22:22:00,
2013-04-01 17:27:00,41.8,18.7,30.19,NW,325,10.0,22.0,39,0.00,,---,0.00,VWS V14.01,2013-04-01 22:27:00,
2013-04-01 17:30:00,41.8,19.3,30.19,NW,310,12.0,22.0,40,0.00,,---,0.00,VWS V14.01,2013-04-01 22:30:00,
2013-04-01 17:32:00,41.9,20.5,30.19,NW,313,12.0,20.0,42,0.00,,---,0.00,VWS V14.01,2013-04-01 22:32:00,
2013-04-01 17:37:00,41.7,19.2,30.19,NW,309,15.0,20.0,40,0.00,,---,0.00,VWS V14.01,2013-04-01 22:37:00,
2013-04-01 17:42:00,41.4,17.7,30.19,NW,306,7.0,20.0,38,0.00,,---,0.00,VWS V14.01,2013-04-01 22:42:00,
2013-04-01 17:48:00,41.7,19.8,30.19,NW,309,13.0,20.0,41,0.00,,---,0.00,VWS V14.01,2013-04-01 22:48:00,
2013-04-01 17:53:00,41.5,19.6,30.19,NW,321,11.0,20.0,41,0.00,,---,0.00,VWS V14.01,2013-04-01 22:53:00,
2013-04-01 17:58:00,41.4,18.9,30.19,NW,323,13.0,20.0,40,0.00,,---,0.00,VWS V14.01,2013-04-01 22:58:00,
2013-04-01 18:00:00,41.3,18.8,30.19,NW,321,11.0,20.0,40,0.00,,---,0.00,VWS V14.01,2013-04-01 23:00:00,
2013-04-01 18:03:00,41.2,19.9,30.20,WNW,303,18.0,19.0,42,0.00,,---,0.00,VWS V14.01,2013-04-01 23:03:00,
2013-04-01 18:08:00,40.9,19.6,30.20,WNW,292,14.0,19.0,42,0.00,,---,0.00,VWS V14.01,2013-04-01 23:08:00,
2013-04-01 18:13:00,40.9,20.7,30.20,NW,315,9.0,19.0,44,0.00,,---,0.00,VWS V14.01,2013-04-01 23:13:00,
2013-04-01 18:18:00,40.9,20.1,30.20,NW,321,12.0,19.0,43,0.00,,---,0.00,VWS V14.01,2013-04-01 23:18:00,
2013-04-01 18:23:00,40.7,20.5,30.20,WNW,302,18.0,19.0,44,0.00,,---,0.00,VWS V14.01,2013-04-01 23:23:00,
2013-04-01 18:28:00,40.3,19.6,30.20,WNW,302,15.0,16.0,43,0.00,,---,0.00,VWS V14.01,2013-04-01 23:28:00,
2013-04-01 18:30:00,40.3,19.6,30.20,WNW,299,16.0,20.0,43,0.00,,---,0.00,VWS V14.01,2013-04-01 23:30:00,
2013-04-01 18:33:00,40.2,19.5,30.20,NW,311,11.0,17.0,43,0.00,,---,0.00,VWS V14.01,2013-04-01 23:33:00,
2013-04-01 18:38:00,40.1,19.4,30.20,WNW,303,11.0,17.0,43,0.00,,---,0.00,VWS V14.01,2013-04-01 23:38:00,
2013-04-01 18:43:00,39.9,20.3,30.20,NW,310,13.0,17.0,45,0.00,,---,0.00,VWS V14.01,2013-04-01 23:43:00,
2013-04-01 18:48:00,39.7,19.0,30.20,NW,321,15.0,17.0,43,0.00,,---,0.00,VWS V14.01,2013-04-01 23:48:00,
2013-04-01 18:54:00,39.5,19.9,30.20,NW,319,13.0,17.0,45,0.00,,---,0.00,VWS V14.01,2013-04-01 23:54:00,
2013-04-01 18:59:00,39.1,19.6,30.20,NW,308,11.0,11.0,45,0.00,,---,0.00,VWS V14.01,2013-04-01 23:59:00,
2013-04-01 19:00:00,39.2,19.1,30.20,NW,308,9.0,17.0,44,0.00,,---,0.00,VWS V14.01,2013-04-02 00:00:00,
2013-04-01 19:04:00,38.8,19.8,30.20,NW,315,8.0,12.0,46,0.00,,---,0.00,VWS V14.01,2013-04-02 00:04:00,
2013-04-01 19:09:00,38.3,21.3,30.20,NW,312,11.0,13.0,50,0.00,,---,0.00,VWS V14.01,2013-04-02 00:09:00,
2013-04-01 19:14:00,38.0,20.5,30.20,NW,309,10.0,13.0,49,0.00,,---,0.00,VWS V14.01,2013-04-02 00:14:00,
2013-04-01 19:19:00,37.6,21.1,30.21,NW,313,7.0,13.0,51,0.00,,---,0.00,VWS V14.01,2013-04-02 00:19:00,
2013-04-01 19:24:00,36.8,20.8,30.21,NW,311,7.0,13.0,52,0.00,,---,0.00,VWS V14.01,2013-04-02 00:24:00,
2013-04-01 19:29:00,36.2,20.7,30.20,NW,304,11.0,11.0,53,0.00,,---,0.00,VWS V14.01,2013-04-02 00:29:00,
2013-04-01 19:30:00,40.3,19.6,30.20,WNW,299,16.0,20.0,43,0.00,,---,0.00,VWS V14.01,2013-04-02 00:30:00,
2013-04-01 19:34:00,36.1,20.6,30.21,NW,306,9.0,12.0,53,0.00,,---,0.00,VWS V14.01,2013-04-02 00:34:00,
2013-04-01 19:39:00,35.7,21.1,30.21,WNW,302,9.0,12.0,55,0.00,,---,0.00,VWS V14.01,2013-04-02 00:39:00,
2013-04-01 19:44:00,35.3,20.8,30.21,WNW,294,8.0,12.0,55,0.00,,---,0.00,VWS V14.01,2013-04-02 00:44:00,
2013-04-01 19:49:00,34.8,21.1,30.21,WNW,302,7.0,12.0,57,0.00,,---,0.00,VWS V14.01,2013-04-02 00:49:00,
2013-04-01 19:54:00,34.1,21.3,30.21,WNW,297,6.0,12.0,59,0.00,,---,0.00,VWS V14.01,2013-04-02 00:54:00,
2013-04-01 19:59:00,33.4,21.0,30.21,WNW,300,6.0,6.0,60,0.00,,---,0.00,VWS V14.01,2013-04-02 00:59:00,
2013-04-01 20:00:00,33.6,21.2,30.21,WNW,300,5.0,12.0,60,0.00,,---,0.00,VWS V14.01,2013-04-02 01:00:00,
2013-04-01 20:05:00,33.0,21.0,30.21,WNW,303,5.0,7.0,61,0.00,,---,0.00,VWS V14.01,2013-04-02 01:05:00,
2013-04-01 20:10:00,32.7,21.1,30.22,WNW,303,6.0,7.0,62,0.00,,---,0.00,VWS V14.01,2013-04-02 01:10:00,
2013-04-01 20:15:00,32.5,20.9,30.22,NW,312,6.0,7.0,62,0.00,,---,0.00,VWS V14.01,2013-04-02 01:15:00,
2013-04-01 20:20:00,32.4,20.9,30.22,NW,308,6.0,7.0,62,0.00,,---,0.00,VWS V14.01,2013-04-02 01:20:00,
2013-04-01 20:25:00,32.3,20.8,30.22,NW,309,6.0,7.0,62,0.00,,---,0.00,VWS V14.01,2013-04-02 01:25:00,
2013-04-01 20:30:00,32.1,20.6,30.23,NW,305,6.0,7.0,62,0.00,,---,0.00,VWS V14.01,2013-04-02 01:30:00,
2013-04-01 20:35:00,31.9,20.8,30.23,NW,304,5.0,7.0,63,0.00,,---,0.00,VWS V14.01,2013-04-02 01:35:00,
2013-04-01 20:40:00,31.3,20.5,30.23,WNW,302,6.0,7.0,64,0.00,,---,0.00,VWS V14.01,2013-04-02 01:40:00,
2013-04-01 20:45:00,30.8,20.4,30.23,NW,304,6.0,7.0,65,0.00,,---,0.00,VWS V14.01,2013-04-02 01:45:00,
2013-04-01 20:50:00,30.6,20.2,30.23,NW,304,6.0,7.0,65,0.00,,---,0.00,VWS V14.01,2013-04-02 01:50:00,
2013-04-01 20:55:00,30.4,20.8,30.23,NW,304,7.0,7.0,67,0.00,,---,0.00,VWS V14.01,2013-04-02 01:55:00,
2013-04-01 21:00:00,30.2,20.6,30.23,WNW,302,7.0,7.0,67,0.00,,---,0.00,VWS V14.01,2013-04-02 02:00:00,
2013-04-01 21:05:00,30.1,20.5,30.23,WNW,296,6.0,7.0,67,0.00,,---,0.00,VWS V14.01,2013-04-02 02:05:00,
2013-04-01 21:10:00,30.4,20.4,30.23,WNW,284,4.0,7.0,66,0.00,,---,0.00,VWS V14.01,2013-04-02 02:10:00,
2013-04-01 21:16:00,30.4,21.1,30.24,WNW,287,5.0,7.0,68,0.00,,---,0.00,VWS V14.01,2013-04-02 02:16:00,
2013-04-01 21:21:00,30.4,20.8,30.24,WNW,292,6.0,7.0,67,0.00,,---,0.00,VWS V14.01,2013-04-02 02:21:00,
2013-04-01 21:26:00,30.5,20.5,30.24,WNW,292,7.0,8.0,66,0.00,,---,0.00,VWS V14.01,2013-04-02 02:26:00,
2013-04-01 21:30:00,30.5,20.5,30.24,WNW,291,7.0,8.0,66,0.00,,---,0.00,VWS V14.01,2013-04-02 02:30:00,
2013-04-01 21:31:00,30.3,20.7,30.24,WNW,288,7.0,8.0,67,0.00,,---,0.00,VWS V14.01,2013-04-02 02:31:00,
2013-04-01 21:36:00,30.3,21.0,30.24,WNW,293,7.0,9.0,68,0.00,,---,0.00,VWS V14.01,2013-04-02 02:36:00,
2013-04-01 21:41:00,30.6,21.3,30.24,WNW,285,7.0,9.0,68,0.00,,---,0.00,VWS V14.01,2013-04-02 02:41:00,
2013-04-01 21:47:00,30.7,21.1,30.25,WNW,288,6.0,9.0,67,0.00,,---,0.00,VWS V14.01,2013-04-02 02:47:00,
2013-04-01 21:52:00,30.9,20.9,30.25,WNW,289,6.0,9.0,66,0.00,,---,0.00,VWS V14.01,2013-04-02 02:52:00,
2013-04-01 21:57:00,30.8,21.1,30.25,WNW,290,7.0,9.0,67,0.00,,---,0.00,VWS V14.01,2013-04-02 02:57:00,
2013-04-01 22:00:00,30.7,21.1,30.25,WNW,288,7.0,9.0,67,0.00,,---,0.00,VWS V14.01,2013-04-02 03:00:00,
2013-04-01 22:02:00,30.5,21.2,30.25,WNW,290,7.0,8.0,68,0.00,,---,0.00,VWS V14.01,2013-04-02 03:02:00,
2013-04-01 22:07:00,30.2,20.9,30.25,WNW,286,5.0,8.0,68,0.00,,---,0.00,VWS V14.01,2013-04-02 03:07:00,
2013-04-01 22:12:00,30.4,21.1,30.25,WNW,286,5.0,8.0,68,0.00,,---,0.00,VWS V14.01,2013-04-02 03:12:00,
2013-04-01 22:17:00,30.1,21.2,30.25,WNW,288,5.0,8.0,69,0.00,,---,0.00,VWS V14.01,2013-04-02 03:17:00,
2013-04-01 22:22:00,29.7,20.8,30.25,WNW,284,4.0,8.0,69,0.00,,---,0.00,VWS V14.01,2013-04-02 03:22:00,
2013-04-01 22:27:00,29.5,20.9,30.25,WNW,287,5.0,8.0,70,0.00,,---,0.00,VWS V14.01,2013-04-02 03:27:00,
2013-04-01 22:30:00,29.4,20.8,30.25,WNW,288,4.0,8.0,70,0.00,,---,0.00,VWS V14.01,2013-04-02 03:30:00,
2013-04-01 22:32:00,29.4,20.8,30.25,WNW,288,5.0,7.0,70,0.00,,---,0.00,VWS V14.01,2013-04-02 03:32:00,
2013-04-01 22:37:00,29.4,20.8,30.25,WNW,287,6.0,7.0,70,0.00,,---,0.00,VWS V14.01,2013-04-02 03:37:00,
2013-04-01 22:42:00,29.3,21.1,30.25,WNW,284,6.0,7.0,71,0.00,,---,0.00,VWS V14.01,2013-04-02 03:42:00,
2013-04-01 22:47:00,29.4,21.2,30.25,WNW,282,7.0,8.0,71,0.00,,---,0.00,VWS V14.01,2013-04-02 03:47:00,
2013-04-01 22:52:00,29.6,21.4,30.25,WNW,288,7.0,9.0,71,0.00,,---,0.00,VWS V14.01,2013-04-02 03:52:00,
2013-04-01 22:57:00,29.6,21.4,30.25,WNW,289,7.0,9.0,71,0.00,,---,0.00,VWS V14.01,2013-04-02 03:57:00,
2013-04-01 23:00:00,29.5,21.3,30.25,WNW,289,7.0,8.0,71,0.00,,---,0.00,VWS V14.01,2013-04-02 04:00:00,
2013-04-01 23:01:00,29.4,21.2,30.25,WNW,291,6.0,8.0,71,0.00,,---,0.00,VWS V14.01,2013-04-02 04:01:00,
2013-04-01 23:02:00,29.3,21.1,30.25,WNW,288,6.0,8.0,71,0.00,,---,0.00,VWS V14.01,2013-04-02 04:02:00,
2013-04-01 23:08:00,29.0,21.1,30.26,WNW,292,6.0,8.0,72,0.00,,---,0.00,VWS V14.01,2013-04-02 04:08:00,
2013-04-01 23:13:00,28.7,20.8,30.26,WNW,289,7.0,8.0,72,0.00,,---,0.00,VWS V14.01,2013-04-02 04:13:00,
2013-04-01 23:18:00,28.4,20.5,30.26,WNW,295,7.0,8.0,72,0.00,,---,0.00,VWS V14.01,2013-04-02 04:18:00,
2013-04-01 23:23:00,28.3,20.8,30.26,WNW,299,7.0,8.0,73,0.00,,---,0.00,VWS V14.01,2013-04-02 04:23:00,
2013-04-01 23:28:00,28.2,21.0,30.26,WNW,298,7.0,8.0,74,0.00,,---,0.00,VWS V14.01,2013-04-02 04:28:00,
2013-04-01 23:30:00,28.2,21.0,30.26,WNW,301,7.0,8.0,74,0.00,,---,0.00,VWS V14.01,2013-04-02 04:30:00,
2013-04-01 23:33:00,28.1,20.9,30.26,WNW,300,8.0,8.0,74,0.00,,---,0.00,VWS V14.01,2013-04-02 04:33:00,
2013-04-01 23:38:00,27.9,20.7,30.26,WNW,293,7.0,8.0,74,0.00,,---,0.00,VWS V14.01,2013-04-02 04:38:00,
2013-04-01 23:43:00,27.7,20.8,30.26,WNW,297,7.0,8.0,75,0.00,,---,0.00,VWS V14.01,2013-04-02 04:43:00,
2013-04-01 23:48:00,27.6,21.0,30.26,WNW,301,7.0,8.0,76,0.00,,---,0.00,VWS V14.01,2013-04-02 04:48:00,
2013-04-01 23:53:00,27.6,21.0,30.26,WNW,299,7.0,8.0,76,0.00,,---,0.00,VWS V14.01,2013-04-02 04:53:00,
2013-04-01 23:58:00,27.6,21.0,30.26,WNW,292,7.0,8.0,76,0.00,,---,0.00,VWS V14.01,2013-04-02 04:58:00,